Theta_e
306 304 302 301 300 299 300 302 304 305 305 305 304 304 305 306 308 310 313 318 324 325 325 324 321 318 316
300 299 299 299 298 295 295 295 299 303 303 304 304 303 303 304 305 306 308 310 313 318 319 317 316 315 315
298 297 296 296 293 291 290 290 293 295 299 302 302 300 300 300 302 303 304 306 307 308 312 312 312 312 312
299 296 295 294 293 289 288 288 288 290 294 297 298 296 296 296 297 299 300 302 303 304 304 305 308 310 310
296 293 291 290 290 290 288 287 287 288 290 293 295 294 292 292 293 295 297 298 299 300 300 301 302 303 304
294 291 291 292 291 289 286 285 285 288 290 290 291 290 291 293 292 292 293 295 296 296 297 297 299 300 302
292 293 292 292 290 288 287 288 288 288 291 289 289 288 288 290 292 291 292 292 293 294 294 295 297 298 298
292 293 292 292 291 291 289 287 286 286 289 287 287 286 288 291 290 292 292 293 294 294 294 295 296 296 295
291 291 291 292 294 293 288 288 288 288 287 287 286 286 287 288 291 292 292 293 294 294 294 295 295 295 295
289 290 292 291 290 293 293 290 289 286 287 286 284 285 284 287 289 290 292 292 292 293 293 293 293 293 294
289 290 290 289 289 289 290 291 289 288 288 288 286 285 286 284 285 288 289 289 290 290 290 291 292 291 292
287 287 287 287 288 288 287 288 289 287 289 286 285 286 286 284 284 285 286 288 288 288 289 289 290 291 291
285 286 287 288 286 286 285 286 285 286 286 285 286 284 285 285 284 283 283 285 286 286 287 287 288 289 288
286 286 287 286 286 286 285 285 285 284 284 284 284 284 284 284 284 283 284 283 285 285 285 286 286 287 287
286 285 285 285 285 285 285 284 284 284 283 283 284 284 284 283 282 283 284 283 284 284 283 283 285 285 285
286 286 285 284 284 284 284 283 283 284 284 284 283 282 282 284 285 284 283 283 284 283 284 282 283 286 285
287 286 286 285 284 284 283 283 283 284 284 284 283 282 280 280 284 285 284 283 283 282 283 282 283 285 285
Wind_Speed
1 0 3 3 3 2 2 2 2 3 2 3 6 9 12 14 16 21 22 21 13 19 20 22 23 21 19
3 2 2 2 3 3 2 3 3 4 2 4 7 9 11 13 15 17 20 21 22 19 20 20 19 18 16
2 1 1 2 3 3 2 2 3 6 8 8 8 8 10 11 13 13 16 18 20 20 16 15 15 13 13
2 2 1 2 2 2 2 1 1 1 5 5 7 9 8 9 11 12 12 13 16 16 14 14 11 11 11
3 2 3 2 4 3 2 2 1 2 3 2 1 1 3 5 5 8 9 10 10 10 9 10 10 10 9
2 3 3 3 3 3 3 3 3 4 5 4 2 1 1 2 4 4 4 5 6 7 7 7 8 8 10
3 4 2 5 5 4 3 2 2 3 5 4 3 3 2 1 3 2 1 2 3 4 5 5 7 9 8
3 3 2 2 5 4 4 4 3 3 2 3 3 2 3 3 2 1 3 3 4 5 5 7 7 7 6
1 1 2 3 5 5 5 5 3 3 4 2 3 3 3 3 2 4 5 5 6 6 6 6 7 6 5
2 4 4 6 4 3 4 5 2 3 4 4 4 3 3 2 2 1 2 5 3 5 5 5 6 4 4
2 2 3 3 2 1 1 2 2 1 4 3 3 3 0 3 2 3 3 3 3 3 2 4 7 4 4
2 2 2 2 2 2 3 3 3 0 6 2 2 3 2 3 3 4 4 3 3 3 3 4 5 7 7
3 2 2 2 4 3 4 5 5 4 3 1 2 2 1 1 2 3 4 5 5 4 4 4 4 5 5
3 3 3 3 4 3 2 3 2 3 2 1 2 3 2 3 2 3 4 3 5 5 5 5 5 6 7
3 4 4 4 4 4 3 3 3 3 4 3 3 2 2 2 4 5 5 5 5 4 5 5 6 7 7
4 4 4 5 5 4 3 4 5 5 4 4 4 3 2 7 13 5 5 5 5 6 6 5 7 7 8
5 5 4 4 6 5 6 6 6 5 5 5 6 5 5 4 2 17 6 5 5 6 6 7 5 3 5
Wind_Direction
252 88 194 179 128 87 38 35 58 52 74 79 50 28 22 23 23 14 22 34 133 139 141 133 130 129 130
181 189 199 165 134 100 55 38 17 36 100 93 79 41 29 21 33 32 31 41 50 85 110 119 119 127 132
186 146 114 131 108 82 90 54 47 35 36 44 74 57 43 32 35 44 48 46 56 57 76 98 108 119 128
221 173 141 134 148 147 172 131 156 52 55 61 75 63 42 35 35 34 49 57 62 64 67 71 78 103 121
224 170 161 171 199 163 136 141 209 238 216 177 186 41 44 55 38 37 45 64 75 80 83 85 86 95 102
216 198 181 186 165 164 127 160 213 193 224 175 226 162 51 47 43 43 46 62 76 89 91 96 109 115 115
246 231 208 192 147 160 175 171 169 140 207 192 196 175 155 151 35 52 83 99 121 118 115 126 131 122 122
276 292 296 165 174 171 162 111 71 144 214 206 177 186 172 161 357 165 163 143 148 130 151 146 130 134 139
53 265 255 214 192 152 152 162 183 195 189 171 191 165 179 168 108 24 165 162 152 141 132 127 130 135 153
131 81 108 112 130 247 172 188 152 197 184 186 160 175 179 174 174 125 125 124 129 139 157 165 156 184 173
148 128 124 107 99 53 148 166 163 234 164 152 166 184 258 137 167 186 193 156 143 121 110 201 185 230 206
208 191 157 133 112 91 66 72 75 66 164 112 133 193 173 168 169 170 197 198 198 193 205 213 227 215 231
224 206 195 120 120 115 96 93 75 85 94 98 117 160 215 201 160 174 161 201 198 197 200 214 220 226 227
218 185 154 163 189 173 166 157 165 149 104 62 119 174 200 232 213 182 203 196 191 204 210 219 230 227 232
211 202 200 189 198 184 193 185 211 184 184 186 191 215 248 252 226 226 216 210 190 186 199 219 224 229 228
213 215 214 205 201 192 194 219 221 209 204 181 179 198 240 231 214 218 211 222 200 202 218 236 244 232 232
213 211 210 210 207 207 209 220 225 225 214 190 195 205 222 244 138 213 218 204 201 211 210 216 241 240 227